Satellite: RS-38 Catalog number: 35869 Epoch time: 11248.78680584 Element set: 683 Inclination: 098.6951 deg RA of node: 302.8694 deg Eccentricity: 0.0004656 Arg of perigee: 149.4289 deg Mean anomaly: 210.7122 deg Mean motion: 14.22020341 rev/day Decay rate: 1.77e-06 rev/day^2 Epoch rev: 10205 Checksum: 316
Satellite: ARISSAT1 Catalog number: 37772 Epoch time: 11248.83697948 Element set: 102 Inclination: 051.6386 deg RA of node: 114.6092 deg Eccentricity: 0.0011903 Arg of perigee: 165.1631 deg Mean anomaly: 298.7396 deg Mean motion: 15.62305814 rev/day Decay rate: 3.7664e-04 rev/day^2 Epoch rev: 508 Checksum: 314
/EX